This is the latest recevied weather packets stored in our database for station/object IU1OPQ-3. If no packets are shown the sender has not sent any weather packets the latest 10 day(s).
| Time | Temp. | Humidity | Pressure | Rain* | Wind** | Luminosity | Snow |
|---|---|---|---|---|---|---|---|
| 1788302401 | 22.22° C | 55% | 1019.4 hPa | 0 mm | - | - | - |
| 1788301201 | 22.22° C | 52% | 1019.5 hPa | 0 mm | - | - | - |
| 1788300000 | 22.78° C | 50% | 1019.3 hPa | 0 mm | - | - | - |
| 1788298801 | 22.78° C | 49% | 1019.4 hPa | 0 mm | - | - | - |
| 1788297600 | 22.78° C | 48% | 1019.2 hPa | 0 mm | - | - | - |
| 1788296401 | 23.33° C | 50% | 1019.1 hPa | 0 mm | - | - | - |
| 1788295201 | 23.33° C | 56% | 1019.1 hPa | 0 mm | - | - | - |
| 1788294001 | 23.33° C | 56% | 1019 hPa | 0 mm | - | - | - |
| 1788292801 | 23.33° C | 56% | 1019 hPa | 0 mm | - | - | - |
| 1788291601 | 23.89° C | 56% | 1019 hPa | 0 mm | - | - | - |
| 1788290401 | 23.89° C | 55% | 1018.8 hPa | 0 mm | - | - | - |
| 1788289201 | 23.89° C | 55% | 1018.4 hPa | 0 mm | - | - | - |
| 1788288001 | 24.44° C | 56% | 1018.3 hPa | 0 mm | - | - | - |
| 1788286801 | 24.44° C | 62% | 1017.9 hPa | 0 mm | - | - | - |
| 1788285605 | 24.44° C | 65% | 1018 hPa | 0 mm | - | - | - |
| 1788284401 | 25° C | 66% | 1017.8 hPa | 0 mm | - | - | - |
| 1788283201 | 25.56° C | 65% | 1017.9 hPa | 0 mm | - | - | - |
| 1788282001 | 26.67° C | 62% | 1017.7 hPa | 0 mm | - | - | - |
| 1788280801 | 28.33° C | 55% | 1018 hPa | 0 mm | - | - | - |
| 1788279601 | 29.44° C | 50% | 1017.8 hPa | 0 mm | - | - | - |
| 1788278402 | 29.44° C | 42% | 1017.6 hPa | 0 mm | - | - | - |
| 1788277204 | 29.44° C | 41% | 1017.7 hPa | 0 mm | - | - | - |
| 1788276024 | 31.11° C | 36% | 1017.8 hPa | 0 mm | - | - | - |
| 1788274801 | 29.44° C | 37% | 1017.7 hPa | 0 mm | - | - | - |
| 1788273601 | 28.33° C | 38% | 1018 hPa | 0 mm | - | - | - |
* Rain latest hour (hover to see other rain measurements)
** Current wind speed in m/s (hover to see current wind gust speed)